User: anonymous   Login
Location: Robert Brownlee Observatory
(34.2308°N, 117.2089°W)
Time: 04:47:45
(UTC-07:00)
Language:

Cosmos 1943 - Orbit

View from above orbital plane
View from above orbital plane
View from above satellite
View from above satellite

Ground track
Ground track

The orbit data is extracted from the following two-line orbital elements,

1 19119U 88039A   18109.24209868  .00000306  00000-0  18199-3 0  9997
2 19119  71.0030 179.0513 0013124 305.4856 109.4122 14.15110911545391
Epoch (UTC): 19 April 2018 05:48:37
Eccentricity: 0.0013124
inclination: 71.0030°
perigee height: 832 km
apogee height: 851 km
right ascension of ascending node: 179.0513°
argument of perigee: 305.4856°
revolutions per day: 14.15110911
mean anomaly at epoch: 109.4122°
orbit number at epoch: 54539

The dashed part of the orbit path shows where the satellite is in the earth's shadow,  

DLR